www.pogodaiklimat.ru

Погода и климат >> Архив погоды >> Россия >> Красноярский край >> Хатанга


АРХИВ ПОГОДЫ в Хатанге

Время (UTC), дата Ветер
(напр.,м/с)
 
Видим.   Явления Облачность Т
(С)
Тd
(С)
f
(%)
Тe
(С)
Тes
(С)
Комфортность P
(гПа)
Po
(гПа)
Тmin
(С)
Tmax
(С)
R
(мм)
R24
(мм)
S
(см)
21 14.03 В 3 20 км 9/0
[Ac und]
-15.2 -18.6 75 -22 -22 тепло 1001.3 996.9
00 15.03 ЮВ 3 2000 м слаб. ливневой снег 9/9 270 м
[Cb cap]
-13.6 -15.6 85 -20 -20 тепло 1001.7 997.4 -18.3 0.3 38
03 15.03 З 5 4000 м слаб. ливневой снег 9/8 300 м
[Cb cap Ac und]
-14.8 -17.2 82 -24 -23 тепло 1002.9 998.7
06 15.03 З 4 10 км слаб. ливневой снег 8/4 400 м
[Cb cap Ac lent Ci fib]
-16.8 -19.8 77 -25 -25 по сезону 1005.1 1000.8
09 15.03 З 4 20 км {ливн. осадки} 8/0
[Ac trans Ci fib]
-18.9 -22.2 75 -28 -27 по сезону 1006.5 1002.1
12 15.03 З 3 20 км {ливн. осадки} 8/0
[Ac trans Ci fib]
-21.9 -24.4 80 -30 -30 по сезону 1008.4 1003.9 -13.6 0.7
15 15.03 З 3 20 км 4/0
[Ac trans Ci fib]
-23.6 -26.6 76 -32 -32 опасность
обморожения
1010.1 1005.7
18 15.03 З 3 10 км снежные кристаллы 10/0
[Ac trans Cs]
-24.8 -27.9 75 -33 -33 опасность
обморожения
1011.4 1007.0
21 15.03 ЮЗ 4 10 км снежные кристаллы 10/4 330 м
[Sc Ac trans Cs]
-26.1 -29.4 74 -36 -36 опасность
обморожения
1013.2 1008.7
00 16.03 ЮЗ 4 20 км {снег} 6/0
[Ac trans Ci fib]
-28.4 -31.9 72 -39 -39 опасность
обморожения
1015.2 1010.7 -28.5 38
03 16.03 ЮЗ 3 20 км 10/4 330 м
[Sc Ac trans Ci fib]
-27.1 -30.5 73 -36 -36 опасность
обморожения
1016.5 1012.0
06 16.03 ЮЗ 3 20 км 6/4 450 м
[Sc Ci sp]
-25.4 -28.7 74 -34 -33 опасность
обморожения
1017.8 1013.3
09 16.03 З 3 20 км 6/4 500 м
[Sc Ci sp]
-24.8 -27.3 80 -33 -33 опасность
обморожения
1019.6 1015.0
12 16.03 СЗ 2 20 км 4/0
[Ac trans Ci fib]
-27.9 -30.3 80 -35 -35 опасность
обморожения
1021.4 1016.8 -24.8
15 16.03 ЮЗ 3 20 км ясно -30.6 -34.2 71 -40 -40 опасность
обморожения
1023.1 1018.5
18 16.03 ЮЗ 4 20 км ясно -31.4 -35.1 70 -43 -43 опасность
обморожения
1023.9 1019.3
21 16.03 ЮЗ 3 20 км ясно -32.4 -36.2 69 -43 -43 опасность
обморожения
1024.7 1020.1
00 17.03 ЮЗ 3 20 км 4/0
[Ci fib]
-33.1 -37.0 68 -43 -43 опасность
обморожения
1025.7 1021.0 -33.5 37
03 17.03 З 3 20 км 6/0
[Ci fib]
-30.1 -33.9 69 -40 -39 опасность
обморожения
1025.9 1021.3
06 17.03 З 1 20 км 8/0
[Ci]
-25.8 -29.3 72 -29 -28 по сезону 1025.6 1021.1
09 17.03 Ю 2 20 км 9/0
[Ci fib]
-23.5 -26.0 80 -30 -29 по сезону 1025.5 1020.9
12 17.03 ЮЗ 2 20 км 9/0
[Ac trans Ci fib]
-23.1 -25.5 81 -29 -29 по сезону 1025.5 1020.9 -23.1
15 17.03 Ю 2 20 км 8/0
[Ac trans Ci fib]
-23.8 -26.3 80 -30 -30 по сезону 1024.4 1019.8
18 17.03 Ю 3 20 км 8/0
[Ac trans Ci fib]
-23.7 -26.1 81 -32 -32 опасность
обморожения
1023.5 1018.9
21 17.03 Ю 3 20 км 8/0
[Ac trans Ci fib]
-24.1 -27.3 75 -33 -33 опасность
обморожения
1023.1 1018.6
00 18.03 Ю 4 20 км 9/0
[Ac trans Ci fib]
-24.4 -27.6 75 -34 -34 опасность
обморожения
1023.0 1018.5 -25.5 37
03 18.03 Ю 2 20 км 9/0
[Ac trans Ci fib]
-21.5 -24.4 77 -28 -27 по сезону 1022.7 1018.2
06 18.03 Ю 4 20 км 6/0
[Ci fib]
-18.3 -21.6 75 -27 -26 по сезону 1022.0 1017.5
09 18.03 ЮЗ 5 20 км 5/0
[Ac trans Ci fib]
-15.8 -21.7 60 -25 -24 по сезону 1021.8 1017.5
12 18.03 Ю 2 10 км снежные кристаллы 10/0
[Ac trans Cs]
-17.8 -21.3 74 -23 -23 тепло 1021.3 1016.9 -15.7
15 18.03 Ю 5 10 км слаб. снег 10/6 300 м
[Sc As op]
-16.3 -18.2 85 -25 -25 тепло 1020.6 1016.1
18 18.03 Ю 5 10 км слаб. снег 10/6 300 м
[Sc As op]
-15.7 -17.6 85 -25 -25 тепло 1019.7 1015.2
21 18.03 Ю 5 10 км слаб. снег 10/6 300 м
[Sc As op]
-16.3 -18.2 85 -25 -25 тепло 1019.8 1015.3
00 19.03 Ю 4 10 км слаб. снег 10/6 330 м
[Sc As op]
-15.9 -17.8 85 -24 -24 тепло 1019.4 1015.0 -17.5 0.5 37
03 19.03 ЮЗ 4 4000 м слаб. ливневой снег 9/8 330 м
[Cb cap Ac und]
-13.3 -15.3 85 -21 -21 тепло 1018.5 1014.2
06 19.03 ЮЗ 5 2000 м слаб. ливневой снег 10/9 300 м
[Cb cap]
-10.6 -13.4 80 -18 -18 тепло 1018.0 1013.7
09 19.03 ЮЗ 6 4000 м слаб. ливневой снег {метель} 6/6 210 м
[Cb cap]
-10.2 -12.2 85 -19 -19 тепло 1017.8 1013.5
12 19.03 ЮЗ 6 4000 м слаб. ливневой снег {метель} 9/9 240 м
[Cb cap]
-9.8 -11.5 87 -18 -18 тепло 1017.6 1013.3 -9.8 0.4
15 19.03 ЮЗ 6 4000 м слаб. ливневой снег {метель} 9/8 330 м
[Cb cap Ac trans Ci fib]
-9.7 -11.5 87 -18 -18 тепло 1016.9 1012.7
18 19.03 ЮЗ 5 2000 м слаб. ливневой снег {метель} 9/6 330 м
[Cb cap Ac trans Ci fib]
-10.2 -12.2 85 -18 -18 тепло 1016.6 1012.3
21 19.03 ЮЗ 5 10 км снежные кристаллы 10/5 210 м
[Frnb Cs]
-11.0 -12.3 90 -19 -19 тепло 1016.3 1012.0
00 20.03 ЮЗ 5 10 км слаб. ливневой снег 9/5 330 м
[Cb cap As trans Ci fib]
-13.3 -14.6 90 -22 -22 тепло 1016.5 1012.2 -13.4 0.3 38
03 20.03 З 4 10 км слаб. ливневой снег 9/5 360 м
[Cb cap Ac trans Ci fib]
-13.8 -15.1 90 -21 -21 тепло 1017.2 1012.8
06 20.03 ЮЗ 4 10 км слаб. ливневой снег 9/5 300 м
[Cb cap Ac trans Ci fib]
-12.8 -15.5 80 -20 -20 тепло 1017.7 1013.4
09 20.03 ЮЗ 3 10 км слаб. ливневой снег 9/6 300 м
[Cb cap Ac trans Ci fib]
-11.2 -13.7 82 -17 -17 тепло 1018.2 1014.0
12 20.03 ЮЗ 4 10 км слаб. ливневой снег 9/6 330 м
[Cb cap Ac trans]
-11.3 -13.1 87 -18 -18 тепло 1018.3 1014.1 -11.0
15 20.03 ЮЗ 4 10 км слаб. ливневой снег 9/6 360 м
[Cb cap Ac und]
-14.5 -15.8 90 -22 -22 тепло 1018.3 1013.9
18 20.03 ЮЗ 3 10 км слаб. ливневой снег 6/4 300 м
[Cb cap Ac trans]
-13.2 -15.2 85 -19 -19 тепло 1017.2 1012.9
21 20.03 ЮЗ 4 10 км слаб. ливневой снег 9/6 300 м
[Cb cap Ac und]
-11.4 -12.7 90 -18 -18 тепло 1015.7 1011.4
00 21.03 Ю 3 10 км слаб. ливневой снег 8/6 330 м
[Cb cap Ac trans Ci fib]
-12.4 -13.7 90 -18 -18 тепло 1013.7 1009.4 -14.6 0.3 38
03 21.03 Ю 4 20 км в посл. час ливневой снег 8/0
[Ac trans Ci]
-12.3 -14.4 84 -19 -19 тепло 1010.4 1006.1
06 21.03 ЮВ 4 20 км {ливн. осадки} 9/0
[Ac trans Ci sp]
-9.9 -15.9 61 -17 -16 тепло 1006.3 1002.0
09 21.03 Ю 4 20 км 9/0
[Ac trans Ci sp]
-10.2 -17.5 55 -17 -17 тепло 1003.4 999.1
12 21.03 Ю 3 20 км 9/0
[Ac trans Ci sp]
-11.5 -16.8 65 -17 -17 тепло 1000.6 996.3 -9.7
15 21.03 СВ 3 20 км 9/0
[Ac trans Ci sp]
-15.5 -18.9 75 -22 -22 тепло 999.4 995.0
18 21.03 С 6 10 км слаб. ливневой снег 9/8 330 м
[Cb cap Ac und]
-17.0 -19.5 81 -27 -27 по сезону 998.7 994.4

 

Местоположение метеостанции Хатанга (Красноярский край, Россия): широта 71.98 долгота 102.47 высота над уровнем моря 33 м.

В архиве по умолчанию представлена погода в Хатанге за последнюю неделю. Архивные данные за месяц целиком и за предыдущие месяцы, начиная с января 2011 года, Вы можете получить, выбрав интересующий диапазон дат из раскрывающегося списка и нажав кнопку "Ввод!".


*Определитесь, кто Вы:
робот инопланетянин человек

Внимание! Время в таблицах - всемирное. Для получения местного времени необходимо прибавить поправку, которая равна 7 ч.

Смотрите также архив погоды в соседних городах и на ближайших метеорологических станциях:

Погода в Волочанке (Красноярский край, Россия) (303 км)
Погода в Анабаре (Якутия, Россия) (391 км)
Погода в Саскылахе (Якутия, Россия) (396 км)
Погода на Острове Преображения (Якутия, Россия) (447 км)
Погода в Джалинде (Якутия, Россия) (460 км)
Погода в Крестах Таймырских (Красноярский край, Россия) (462 км)
Погода в Оленеке (Якутия, Россия) (537 км)
Погода на Мысе Стерлегова (Красноярский край, Россия) (568 км)
Погода в Ярольине (Якутия, Россия) (587 км)
Погода на Усть-Оленеке (Якутия, Россия) (589 км)

Пояснения к столбцам:

Ветер - указаны скорость ветра в м/с - средняя за 10 мин, порывы в срок и между сроками (в фигурных скобках) и направление, откуда дует ветер: С - северный, СВ - северо-восточный, В - восточный, ЮВ - юго-восточный, Ю - южный, ЮЗ - юго-западный, З - западный, СЗ - северо-западный.
Видимость - горизонтальная дальность видимости в метрах или километрах. При видимости от 1 до 10 км при отсутствии осадков обычно наблюдается дымка, при ухудшении видимости до 1 км и менее - туман. В сухую погоду видимость может ухудшаться дымом, пылью или мглою.
Явления - указаны атмосферные явления, наблюдавшиеся в срок или в последний час перед сроком; фигурными скобками обозначены явления, наблюдавшиеся между сроками (за 1-3 часа до срока); квадратными скобками обозначены град или гололедные отложения с указанием их диаметра в мм.
Облачность - указаны через наклонную черту общая и нижняя облачность в баллах и высота нижней границы облаков в метрах; квадратными скобками обозначены формы облаков: Ci - перистые, Cs - перисто-слоистые, Cc - перисто-кучевые, Ac - высококучевые, As - высокослоистые, Sc - слоисто-кучевые, Ns - слоисто-дождевые, Cu - кучевые, Cb - кучево-дождевые. Подробнее классификацию облаков см. в Атласе облаков (PDF).
T - Температура воздуха - температура, измеренная на высоте 2 м над землей.
Td - Температура точки росы - температура, при понижении до которой содержащийся в воздухе водяной пар достигнет насыщения.
f - Относительная влажность воздуха - влажноcть воздуха, измеренная на высоте 2 м над землей.
Te - Эффективная температура - температура, которую ощущает одетый по сезону человек в тени. Характеристика душности погоды. При расчете учитывается влияние влажности воздуха и скорости ветра на теплоощущения человека.
Tes - Эффективная температура на солнце - температура, которую ощущает человек, с поправкой на солнечный нагрев. Характеристика знойности погоды. Зависит от высоты солнца над горизонтом, облачности и скорости ветра. Ночью, в пасмурную погоду, а также при ветре 12 м/с и более поправка равна нулю.
P - Атмосферное давление - приведенное к уровню моря атмосферное давление.
Po - Атмосферное давление - измеренное на уровне метеостанции атмосферное давление.
Tmin - Минимальная температура - минимум температуры воздуха на высоте 2 м над землей.
Tmax - Максимальная температура - максимум температуры воздуха на высоте 2 м над землей.
R - Количество осадков - Количество выпавших осадков за период времени, мм. При наведении курсора мыши на число - период времени, за который выпало указанное количество осадков.
R24 - Количество осадков - Количество выпавших осадков за 24 часа, мм.
S - Снежный покров - Высота снежного покрова, см. При наведении курсора мыши на число - состояние снежного покрова и степень покрытия местности в баллах.